• In Hungary
  • List of Countries
  • For 7 days
  • Water Temperature
  • Satellite Maps
  • Weather Map
  • News
  • Weather Widgets
  • user-avatar
    Login

    Hourly Weather Surakaevo

    Today, 16 July, Monday

    Time Temperature Precipitation Wind Pressure Humidity
    00:00 +18°C° 0 mm 4 mps 724 mmHg 90%
    01:00 +18°C° 0 mm 4 mps 724 mmHg 90%
    02:00 +18°C° 0 mm 4 mps 724 mmHg 91%
    03:00 +17°C° 0 mm 4 mps 724 mmHg 91%
    04:00 +18°C° 0 mm 4 mps 725 mmHg 91%
    05:00 +19°C° 0.1 mm 4 mps 725 mmHg 88%
    06:00 +19°C° 0.1 mm 4 mps 725 mmHg 85%
    07:00 +20°C° 0.1 mm 4 mps 725 mmHg 83%
    08:00 +22°C° 0 mm 5 mps 726 mmHg 76%
    09:00 +23°C° 0 mm 5 mps 726 mmHg 69%
    10:00 +26°C° 0 mm 5 mps 726 mmHg 62%
    11:00 +26°C° 0 mm 5 mps 726 mmHg 60%
    12:00 +27°C° 0 mm 5 mps 726 mmHg 58%
    13:00 +27°C° 0 mm 5 mps 726 mmHg 55%
    14:00 +27°C° 0 mm 5 mps 726 mmHg 56%
    15:00 +27°C° 0 mm 5 mps 726 mmHg 57%
    16:00 +28°C° 0 mm 4 mps 725 mmHg 58%
    17:00 +27°C° 0 mm 4 mps 725 mmHg 63%
    18:00 +26°C° 0 mm 4 mps 725 mmHg 68%
    19:00 +25°C° 0 mm 4 mps 725 mmHg 73%
    20:00 +22°C° 0 mm 4 mps 725 mmHg 74%
    21:00 +21°C° 0 mm 4 mps 725 mmHg 74%
    22:00 +20°C° 0 mm 5 mps 725 mmHg 75%
    23:00 +20°C° 0 mm 5 mps 725 mmHg 73%

    Tomorrow, 17 July, Tuesday

    Time Temperature Precipitation Wind Pressure Humidity
    00:00 +20°C° 0 mm 5 mps 725 mmHg 71%
    01:00 +19°C° 0 mm 5 mps 725 mmHg 69%
    02:00 +19°C° 0 mm 5 mps 725 mmHg 68%
    03:00 +19°C° 0 mm 5 mps 725 mmHg 67%
    04:00 +19°C° 0 mm 5 mps 725 mmHg 66%
    05:00 +19°C° 0 mm 5 mps 725 mmHg 69%
    06:00 +19°C° 0 mm 5 mps 725 mmHg 72%
    07:00 +19°C° 0 mm 5 mps 725 mmHg 75%
    08:00 +20°C° 0 mm 6 mps 725 mmHg 72%
    09:00 +22°C° 0 mm 6 mps 725 mmHg 70%
    10:00 +23°C° 0 mm 7 mps 725 mmHg 68%
    11:00 +24°C° 0 mm 7 mps 725 mmHg 66%
    12:00 +26°C° 0 mm 7 mps 725 mmHg 63%
    13:00 +27°C° 0 mm 6 mps 725 mmHg 61%
    14:00 +27°C° 0.2 mm 6 mps 725 mmHg 64%
    15:00 +27°C° 0.2 mm 5 mps 724 mmHg 67%
    16:00 +27°C° 0.2 mm 4 mps 724 mmHg 70%
    17:00 +26°C° 0.3 mm 4 mps 724 mmHg 74%
    18:00 +23°C° 0.3 mm 4 mps 724 mmHg 79%
    19:00 +22°C° 0.3 mm 3 mps 723 mmHg 83%
    20:00 +22°C° 0.1 mm 4 mps 723 mmHg 82%
    21:00 +22°C° 0.1 mm 5 mps 723 mmHg 80%
    22:00 +21°C° 0.1 mm 5 mps 723 mmHg 78%
    23:00 +21°C° 0.5 mm 5 mps 723 mmHg 77%

    Day after tomorrow, 18 July, Wednesday

    Time Temperature Precipitation Wind Pressure Humidity
    00:00 +20°C° 0.5 mm 5 mps 723 mmHg 77%
    01:00 +20°C° 0.5 mm 5 mps 723 mmHg 76%
    02:00 +19°C° 1.3 mm 5 mps 723 mmHg 80%
    03:00 +17°C° 1.3 mm 5 mps 723 mmHg 85%
    04:00 +17°C° 1.3 mm 5 mps 723 mmHg 89%
    05:00 +17°C° 0.1 mm 5 mps 723 mmHg 87%
    06:00 +19°C° 0.1 mm 4 mps 723 mmHg 84%
    07:00 +19°C° 0.1 mm 4 mps 723 mmHg 82%
    08:00 +21°C° 0 mm 5 mps 723 mmHg 76%
    09:00 +23°C° 0 mm 5 mps 724 mmHg 70%
    10:00 +26°C° 0 mm 6 mps 724 mmHg 64%
    11:00 +26°C° 0.1 mm 6 mps 724 mmHg 66%
    12:00 +26°C° 0.1 mm 5 mps 724 mmHg 68%
    13:00 +26°C° 0.1 mm 5 mps 724 mmHg 71%
    14:00 +25°C° 0.5 mm 5 mps 724 mmHg 74%
    15:00 +24°C° 0.5 mm 6 mps 724 mmHg 77%
    16:00 +23°C° 0.5 mm 6 mps 724 mmHg 80%
    17:00 +22°C° 0.5 mm 5 mps 724 mmHg 82%
    18:00 +22°C° 0.5 mm 4 mps 724 mmHg 83%
    19:00 +21°C° 0.5 mm 4 mps 724 mmHg 84%
    20:00 +20°C° 0.3 mm 4 mps 724 mmHg 85%
    21:00 +19°C° 0.3 mm 3 mps 724 mmHg 86%
    22:00 +18°C° 0.3 mm 3 mps 724 mmHg 87%
    23:00 +18°C° 0 mm 3 mps 724 mmHg 87%

    19 July, Thursday

    Time Temperature Precipitation Wind Pressure Humidity
    00:00 +17°C° 0 mm 2 mps 724 mmHg 88%
    01:00 +17°C° 0 mm 2 mps 724 mmHg 88%
    02:00 +17°C° 0 mm 2 mps 724 mmHg 89%
    03:00 +18°C° 0 mm 1 mps 724 mmHg 90%
    04:00 +18°C° 0 mm 1 mps 724 mmHg 91%
    05:00 +18°C° 0 mm 2 mps 724 mmHg 89%
    06:00 +19°C° 0 mm 2 mps 725 mmHg 86%
    07:00 +20°C° 0 mm 2 mps 725 mmHg 84%
    08:00 +23°C° 0 mm 2 mps 725 mmHg 77%
    09:00 +24°C° 0 mm 2 mps 725 mmHg 71%
    10:00 +26°C° 0 mm 2 mps 725 mmHg 64%
    11:00 +27°C° 0.1 mm 2 mps 725 mmHg 61%
    12:00 +28°C° 0.1 mm 2 mps 725 mmHg 59%
    13:00 +29°C° 0.1 mm 2 mps 725 mmHg 57%
    14:00 +29°C° 0.1 mm 1 mps 725 mmHg 55%
    15:00 +29°C° 0.1 mm 1 mps 725 mmHg 54%
    16:00 +28°C° 0.1 mm 0 mps 725 mmHg 53%
    17:00 +29°C° 0 mm 1 mps 725 mmHg 58%
    18:00 +28°C° 0 mm 1 mps 725 mmHg 63%
    19:00 +27°C° 0 mm 1 mps 725 mmHg 69%
    20:00 +25°C° 0 mm 1 mps 725 mmHg 73%
    21:00 +24°C° 0 mm 2 mps 725 mmHg 77%
    22:00 +21°C° 0 mm 2 mps 725 mmHg 81%
    23:00 +20°C° 0.2 mm 2 mps 725 mmHg 83%

    20 July, Friday

    Time Temperature Precipitation Wind Pressure Humidity
    00:00 +21°C° 0.2 mm 1 mps 725 mmHg 85%
    01:00 +20°C° 0.2 mm 1 mps 725 mmHg 86%
    02:00 +20°C° 0 mm 1 mps 725 mmHg 87%
    03:00 +19°C° 0 mm 1 mps 725 mmHg 88%
    04:00 +19°C° 0 mm 1 mps 725 mmHg 88%
    05:00 +20°C° 0 mm 1 mps 725 mmHg 85%
    06:00 +21°C° 0 mm 1 mps 725 mmHg 82%
    07:00 +22°C° 0 mm 1 mps 726 mmHg 79%
    08:00 +24°C° 0 mm 1 mps 726 mmHg 74%
    09:00 +25°C° 0 mm 2 mps 726 mmHg 70%
    10:00 +26°C° 0 mm 2 mps 726 mmHg 66%
    11:00 +27°C° 0 mm 1 mps 726 mmHg 62%
    12:00 +28°C° 0 mm 1 mps 726 mmHg 58%
    13:00 +29°C° 0 mm 1 mps 726 mmHg 55%
    14:00 +29°C° 0 mm 1 mps 726 mmHg 55%
    15:00 +29°C° 0 mm 1 mps 726 mmHg 55%
    16:00 +29°C° 0 mm 1 mps 725 mmHg 55%
    17:00 +28°C° 0.2 mm 2 mps 725 mmHg 61%
    18:00 +27°C° 0.2 mm 2 mps 725 mmHg 68%
    19:00 +26°C° 0.2 mm 2 mps 725 mmHg 75%
    20:00 +25°C° 0 mm 2 mps 725 mmHg 78%
    21:00 +23°C° 0 mm 2 mps 725 mmHg 81%
    22:00 +21°C° 0 mm 2 mps 725 mmHg 84%
    23:00 +20°C° 0.1 mm 2 mps 725 mmHg 86%

    21 July, Saturday

    Time Temperature Precipitation Wind Pressure Humidity
    00:00 +19°C° 0.1 mm 3 mps 725 mmHg 88%
    01:00 +19°C° 0.1 mm 3 mps 725 mmHg 89%
    02:00 +18°C° 0 mm 3 mps 725 mmHg 90%
    03:00 +18°C° 0 mm 3 mps 725 mmHg 91%
    04:00 +17°C° 0 mm 2 mps 725 mmHg 92%
    05:00 +18°C° 0 mm 3 mps 725 mmHg 90%
    06:00 +19°C° 0 mm 3 mps 725 mmHg 87%
    07:00 +20°C° 0 mm 4 mps 726 mmHg 85%
    08:00 +21°C° 0 mm 4 mps 726 mmHg 78%
    09:00 +23°C° 0 mm 4 mps 726 mmHg 72%
    10:00 +25°C° 0 mm 4 mps 726 mmHg 66%
    11:00 +26°C° 0 mm 4 mps 726 mmHg 62%
    12:00 +27°C° 0 mm 4 mps 726 mmHg 59%
    13:00 +28°C° 0 mm 4 mps 726 mmHg 56%
    14:00 +28°C° 0.2 mm 4 mps 726 mmHg 58%
    15:00 +27°C° 0.2 mm 4 mps 726 mmHg 60%
    16:00 +27°C° 0.2 mm 4 mps 726 mmHg 61%
    17:00 +26°C° 0.2 mm 4 mps 726 mmHg 66%
    18:00 +25°C° 0.2 mm 4 mps 726 mmHg 70%
    19:00 +23°C° 0.2 mm 4 mps 726 mmHg 74%
    20:00 +22°C° 0 mm 5 mps 727 mmHg 74%
    21:00 +20°C° 0 mm 5 mps 727 mmHg 74%
    22:00 +19°C° 0 mm 5 mps 727 mmHg 75%
    23:00 +19°C° 0 mm 5 mps 727 mmHg 73%
    Show more